User: anonymous   Login
Location: Brookview Estates
(36.0476°N, 86.6931°W)
Time: 11:33:31
(UTC+00:00)
Language:

Cosmos 2242 Rocket - Orbit

View from above orbital plane
View from above orbital plane
View from above satellite
View from above satellite

Ground track
Ground track

The orbit data is extracted from the following two-line orbital elements,

1 22627U 93024B   20184.94809725  .00000045  00000-0  31371-5 0  9995
2 22627  82.5224 147.6571 0022113 297.5487  62.3479 14.78175177466371
Epoch (UTC): 02 July 2020 22:45:15
Eccentricity: 0.0022113
inclination: 82.5224°
perigee height: 619 km
apogee height: 650 km
right ascension of ascending node: 147.6571°
argument of perigee: 297.5487°
revolutions per day: 14.78175177
mean anomaly at epoch: 62.3479°
orbit number at epoch: 46637

The dashed part of the orbit path shows where the satellite is in the earth's shadow,  

DLR